Regional Weather Roundup
Issued by NWS

Home | Current Version | Previous Version | Graphics & Text | Print | Product List | Glossary On
Versions: 1 2 3 4 5 6 7 8 9 10 11 12 13 14 15 16 17 18 19 20 21 22 23 24 25 26 27 28 29 30 31 32 33 34 35 36 37 38 39 40 41 42 43 44 45 46 47 48 49 50
000
ASUS43 KFSD 232002
RWRSD

WEATHER ROUNDUP FOR SOUTH DAKOTA
NATIONAL WEATHER SERVICE SIOUX FALLS SD
200 PM CST TUE JAN 23 2018

NOTE: "FAIR" INDICATES FEW OR NO CLOUDS BELOW 12,000 FEET WITH NO
SIGNIFICANT WEATHER AND/OR OBSTRUCTIONS TO VISIBILITY.


SDZ001>005-009-010-012>017-232100-
NORTHWEST AND NORTH CENTRAL SOUTH DAKOTA

CITY           SKY/WX    TMP DP  RH WIND       PRES   REMARKS
BUFFALO          N/A     36  22  56 W17       30.06S
FAITH            N/A     40  23  50 NW21      30.09F
MOBRIDGE       PTSUNNY   37  26  64 NW15      30.06S
$$

SDZ012>016-024>037-041>051-057-063-072>074-232100-
SOUTHWEST AND SOUTH CENTRAL SOUTH DAKOTA

CITY           SKY/WX    TMP DP  RH WIND       PRES   REMARKS
RAPID CTY ARPT SUNNY     45  14  28 NW20G26   30.12F
PIERRE         PTSUNNY   43  25  49 NW21      30.09S
CUSTER         SUNNY     29  10  45 NW12G21   30.08F WCI  19
ELLSWORTH AFB  SUNNY     42  17  36 NW21G29   30.11S
PHILIP         SUNNY     44  28  53 NW15      30.12F
PINE RIDGE     MOSUNNY   32  23  69 SW10      30.18F WCI  24
SPEARFISH        N/A     36  18  48 W16       30.14S
WINNER         FAIR      38  28  67 W15       30.11F
$$

SDZ004>011-016>023-039-040-232100-
NORTHEAST SOUTH DAKOTA

CITY           SKY/WX    TMP DP  RH WIND       PRES   REMARKS
ABERDEEN       PTSUNNY   31  22  69 VRB3      30.09S
WATERTOWN      CLOUDY    22  21  96 W9        30.05F WCI  12
BROOKINGS      CLOUDY    23  20  88 W8        30.08F WCI  14
SISSETON         N/A     24  19  81 SW7       30.08F WCI  16
$$

SDZ017-020-022-023-036>040-048>070-232100-
SOUTHEAST SOUTH DAKOTA

CITY           SKY/WX    TMP DP  RH WIND       PRES   REMARKS
SIOUX FALLS    CLOUDY    23  20  88 W7        30.11S WCI  15
HURON          PTSUNNY   25  22  88 SW3       30.10F
CHAMBERLAIN    CLOUDY    35  32  88 W7        30.10S WCI  29
MITCHELL       MOSUNNY   26  23  88 W5        30.11F WCI  20
YANKTON        CLOUDY    26  22  84 W9        30.14F WCI  17
$$

ABBREVIATIONS USED IN REMARKS
   TC - TEMPERATURE IN CELSIUS
  WCI - WIND CHILL INDEX
   HX - HEAT INDEX
  VSB - VISIBILITY




USA.gov is the U.S. government's official web portal to all federal, state and local government web resources and services.